Location: Clairmont
(55.2667°N, 118.8000°W)
Time: 15:06:09
(UTC+00:00)

Envisat - Pass Details

Date: 27 October 2020
Orbit: 764 x 766 km, 98.1° (Epoch: 03 December)

Event Time Altitude Azimuth Distance (km) Brightness Sun altitude
Rises 01:36:06 0° 188° (S) 3,224 6.5 -10.1°
Reaches altitude 10° 01:38:34 10° 197° (SSW) 2,303 5.8 -10.5°
Maximum altitude 01:43:15 37° 264° (W) 1,186 4.8 -11.2°
Drops below altitude 10° 01:47:59 10° 332° (NNW) 2,318 5.8 -11.8°
Sets 01:50:28 0° 341° (NNW) 3,249 6.4 -12.2°
